Farmington, MO

8:39 AM CDT on October 17, 2019 (GMT -0500)
Farmington Regional

Weather History for KFAM - July, 2019

Change the Weather History Date:

Monday, July 22, 2019

  Actual Average Record
Temperature  
Mean Temperature 72 °F -  
Max Temperature 79 °F 84 °F 99 °F (2017)
Min Temperature 66 °F 65 °F 55 °F (2000)
Cooling Degree Days 8    
Growing Degree Days 22 (Base 50)    
Moisture  
Dew Point 68 °F    
Average Humidity 89    
Maximum Humidity 100    
Minimum Humidity 60    
Precipitation  
Precipitation 0.56 in - - ()
Sea Level Pressure  
Sea Level Pressure 30.01 in    
Wind  
Wind Speed 6 mph (North)    
Max Wind Speed 16 mph    
Max Gust Speed 23 mph    
Visibility 9 miles    
Events Rain    
Averages and records for this station are not official NWS values.
T = Trace of Precipitation, MM = Missing Value Source: NWS Daily Summary

Daily Weather History Graph

Daily Weather History Graph

Search for Another Location

Airport or City:

Astronomy

Jul. 22, 2019 Rise Set
Actual Time 5:56 AM CDT 8:18 PM CDT
Civil Twilight 5:27 AM CDT 8:48 PM CDT
Nautical Twilight 4:50 AM CDT 9:25 PM CDT
Astronomical Twilight 4:09 AM CDT 10:06 PM CDT
Moon 11:45 PM CDT (7/22) 11:08 AM CDT (7/22)
Length of Visible Light 15h 21m
Length of Day
14h 22m
Waning Gibbous, 72% of the Moon is Illuminated
Jul 22
Waning Gibbous
Jul 24
Last Quarter
Jul 31
New
Aug 7
First Quarter
Aug 15
Full

Hourly Weather History & Observations

Time (CDT) Temp. Dew Point Humidity Pressure Visibility Wind Dir Wind Speed Gust Speed Precip Events Conditions
12:56 AM 78.1 °F 73.9 °F 87% 29.93 in 10.0 mi NNE 6.9 mph - N/A   Scattered Clouds
1:56 AM 77.0 °F 73.9 °F 90% 29.94 in 10.0 mi Calm Calm - 0.00 in Rain Light Rain
2:56 AM 75.9 °F 75.0 °F 97% 29.93 in 10.0 mi South 5.8 mph - 0.00 in   Mostly Cloudy
3:29 AM 75.2 °F 73.4 °F 94% 29.94 in 10.0 mi WSW 4.6 mph - 0.00 in Rain Light Rain
3:56 AM 73.9 °F 72.0 °F 93% 29.94 in 10.0 mi West 4.6 mph - 0.00 in Rain Light Rain
4:09 AM 73.4 °F 73.4 °F 100% 29.93 in 10.0 mi Calm Calm - 0.00 in Rain Light Rain
4:21 AM 75.2 °F 73.4 °F 94% 29.92 in 10.0 mi Calm Calm - 0.00 in Rain Light Rain
4:56 AM 75.0 °F 73.9 °F 96% 29.91 in 10.0 mi North 8.1 mph - N/A Rain Light Rain
5:36 AM 73.4 °F 71.6 °F 94% 29.95 in 10.0 mi NW 6.9 mph - 0.00 in Rain Light Rain
5:56 AM 72.0 °F 71.1 °F 97% 29.94 in 10.0 mi NNW 3.5 mph - 0.01 in Rain Light Rain
6:56 AM 72.0 °F 71.1 °F 97% 29.96 in 10.0 mi NNE 3.5 mph - 0.04 in Rain Light Rain
7:07 AM 71.6 °F 71.6 °F 100% 29.95 in 10.0 mi North 4.6 mph - 0.01 in Rain Light Rain
7:15 AM 71.6 °F 71.6 °F 100% 29.95 in 10.0 mi North 4.6 mph - 0.01 in   Mostly Cloudy
7:49 AM 71.6 °F 71.6 °F 100% 29.96 in 10.0 mi NNE 6.9 mph - 0.01 in Rain Light Rain
7:56 AM 72.0 °F 72.0 °F 100% 29.96 in 10.0 mi NE 8.1 mph - 0.01 in Rain Light Rain
8:31 AM 71.6 °F 71.6 °F 100% 29.97 in 10.0 mi NNE 10.4 mph - 0.00 in Rain Light Rain
8:56 AM 70.0 °F 69.1 °F 97% 29.99 in 4.0 mi NW 10.4 mph - 0.02 in Rain Heavy Rain
9:05 AM 69.8 °F 69.8 °F 100% 29.99 in 2.0 mi NNW 13.8 mph - 0.08 in Rain Heavy Rain
9:11 AM 69.8 °F 68.0 °F 94% 29.99 in 3.0 mi North 9.2 mph - 0.19 in Rain Heavy Rain
9:56 AM 68.0 °F 68.0 °F 100% 30.02 in 10.0 mi NNW 11.5 mph - 0.46 in Rain Light Rain
10:56 AM 68.0 °F 66.9 °F 96% 30.03 in 10.0 mi North 10.4 mph - 0.02 in Rain Light Rain
11:09 AM 66.2 °F 66.2 °F 100% 30.03 in 10.0 mi North 8.1 mph 17.3 mph 0.00 in Rain Light Rain
11:56 AM 66.9 °F 64.9 °F 93% 30.05 in 4.0 mi North 11.5 mph - 0.00 in Rain Light Rain
12:03 PM 66.2 °F 66.2 °F 100% 30.04 in 7.0 mi North 9.2 mph - 0.00 in Rain Light Rain
12:28 PM 68.0 °F 66.2 °F 94% 30.05 in 10.0 mi North 8.1 mph - 0.00 in   Overcast
12:37 PM 69.8 °F 66.2 °F 88% 30.05 in 10.0 mi North 10.4 mph 17.3 mph 0.00 in   Overcast
12:44 PM 69.8 °F 66.2 °F 88% 30.05 in 10.0 mi North 9.2 mph 17.3 mph 0.00 in   Overcast
12:56 PM 69.1 °F 66.0 °F 90% 30.06 in 10.0 mi North 11.5 mph - 0.00 in   Overcast
1:37 PM 73.4 °F 66.2 °F 78% 30.05 in 10.0 mi North 11.5 mph - N/A   Overcast
1:56 PM 73.9 °F 64.0 °F 71% 30.06 in 10.0 mi NNE 16.1 mph 23.0 mph N/A   Overcast
2:56 PM 75.9 °F 62.1 °F 62% 30.06 in 10.0 mi NNE 12.7 mph 19.6 mph N/A   Clear
3:56 PM 77.0 °F 62.1 °F 60% 30.05 in 10.0 mi North 9.2 mph - N/A   Clear
4:56 PM 79.0 °F 64.0 °F 60% 30.04 in 10.0 mi NNE 9.2 mph - N/A   Partly Cloudy
5:56 PM 77.0 °F 64.0 °F 64% 30.04 in 10.0 mi NNE 9.2 mph - N/A   Mostly Cloudy
6:56 PM 77.0 °F 64.0 °F 64% 30.05 in 10.0 mi North 6.9 mph - N/A   Clear
7:56 PM 75.0 °F 64.9 °F 71% 30.06 in 10.0 mi NNW 5.8 mph - N/A   Mostly Cloudy
8:56 PM 71.1 °F 66.9 °F 87% 30.09 in 10.0 mi Calm Calm - N/A   Clear
9:56 PM 72.0 °F 66.9 °F 84% 30.10 in 10.0 mi NNW 5.8 mph - N/A   Mostly Cloudy
10:56 PM 71.1 °F 66.0 °F 84% 30.11 in 10.0 mi North 5.8 mph - N/A   Partly Cloudy
11:56 PM 69.1 °F 64.0 °F 84% 30.12 in 10.0 mi North 4.6 mph - N/A   Clear